Location: Banksville Park
(38.5557°N, 75.1182°W)
Time: 06:25:48
(UTC+00:00)

CENTAUR R/B - Pass Details

Date: 20 January 2021
Orbit: 742 x 1446 km, 63.5° (Epoch: 01 March)

Event Time Altitude Azimuth Distance (km) Brightness Sun altitude
Rises 10:44:58 0° 174° (S) 3,277 5.5 -17.4°
Reaches altitude 10° 10:47:39 10° 161° (SSE) 2,422 5.0 -16.9°
Maximum altitude 10:52:04 24° 108° (ESE) 1,752 4.8 -16.0°
Drops below altitude 10° 10:57:02 10° 56° (NE) 2,758 5.5 -15.1°
Sets 11:00:18 0° 44° (NE) 3,842 6.0 -14.4°
